Boothville, LA

1:12 PM CST on December 15, 2017 (GMT -0600)
Boothville

Weather History for KBVE - April, 2013

Change the Weather History Date:

Wednesday, April 10, 2013

  Actual Average (KAXO) Record (KAXO)
Temperature  
Mean Temperature 74 °F -  
Max Temperature 79 °F 69 °F 80 °F (2013)
Min Temperature 68 °F 65 °F 62 °F (1998)
Cooling Degree Days 8    
Growing Degree Days 24 (Base 50)    
Moisture  
Dew Point 69 °F    
Average Humidity 90    
Maximum Humidity 100    
Minimum Humidity 74    
Precipitation  
Precipitation 0.00 in - - ()
Sea Level Pressure  
Sea Level Pressure 29.93 in    
Wind  
Wind Speed 13 mph (SE)    
Max Wind Speed 22 mph    
Max Gust Speed 30 mph    
Visibility 7 miles    
Events      
Averages and records for this station are not official NWS values.
T = Trace of Precipitation, MM = Missing Value Source: NWS Daily Summary

Daily Weather History Graph

Daily Weather History Graph

Search for Another Location

Airport or City:

Trip Planner

Search our weather history database for the weather conditions in past years. The results will help you decide how hot, cold, wet, or windy it might be!

Date:

Astronomy

Apr. 10, 2013 Rise Set
Actual Time 6:36 AM CDT 7:21 PM CDT
Civil Twilight 6:12 AM CDT 7:45 PM CDT
Nautical Twilight 5:44 AM CDT 8:14 PM CDT
Astronomical Twilight 5:15 AM CDT 8:43 PM CDT
Moon 6:35 AM CDT (4/10) 7:52 PM CDT (4/10)
Length of Visible Light 13h 33m
Length of Day
12h 44m
New Moon, 0% of the Moon is Illuminated
Apr 10
New Moon
Apr 18
First Quarter
Apr 25
Full
May 2
Last Quarter
May 9
New

Hourly Weather History & Observations

Time (CDT) Temp. Dew Point Humidity Pressure Visibility Wind Dir Wind Speed Gust Speed Precip Events Conditions
12:51 AM 70.0 °F 69.1 °F 97% 29.98 in 7.0 mi SE 15.0 mph 21.9 mph N/A   Clear
1:51 AM 69.1 °F 68.0 °F 96% 29.96 in 6.0 mi SE 10.4 mph - N/A   Scattered Clouds
2:41 AM 71.6 °F 69.8 °F 94% 29.94 in 7.0 mi SE 11.5 mph 20.7 mph N/A   Scattered Clouds
2:51 AM 70.0 °F 69.1 °F 97% 29.94 in 7.0 mi SE 13.8 mph - N/A   Partly Cloudy
3:51 AM 70.0 °F 69.1 °F 97% 29.93 in 7.0 mi SE 12.7 mph 19.6 mph N/A   Clear
4:51 AM 69.1 °F 68.0 °F 96% 29.91 in 7.0 mi SE 11.5 mph - N/A   Clear
5:51 AM 68.0 °F 66.9 °F 96% 29.92 in 6.0 mi ESE 6.9 mph - N/A   Clear
6:30 AM 68.0 °F 68.0 °F 100% 29.93 in 5.0 mi SE 6.9 mph - N/A   Partly Cloudy
6:51 AM 69.1 °F 68.0 °F 96% 29.94 in 4.0 mi SE 9.2 mph - N/A   Scattered Clouds
7:08 AM 69.8 °F 69.8 °F 100% 29.94 in 5.0 mi SE 11.5 mph - N/A   Mostly Cloudy
7:39 AM 71.6 °F 69.8 °F 94% 29.94 in 6.0 mi SE 12.7 mph 19.6 mph N/A   Mostly Cloudy
7:51 AM 71.1 °F 70.0 °F 96% 29.95 in 6.0 mi SE 12.7 mph 19.6 mph N/A   Overcast
8:02 AM 71.6 °F 69.8 °F 94% 29.95 in 6.0 mi SE 11.5 mph 19.6 mph N/A   Overcast
8:10 AM 71.6 °F 69.8 °F 94% 29.96 in 6.0 mi SE 11.5 mph 18.4 mph N/A   Overcast
8:38 AM 73.4 °F 71.6 °F 94% 29.96 in 6.0 mi SSE 16.1 mph 21.9 mph N/A   Mostly Cloudy
8:51 AM 73.0 °F 71.1 °F 93% 29.96 in 7.0 mi SE 17.3 mph 23.0 mph N/A   Partly Cloudy
9:51 AM 75.0 °F 70.0 °F 84% 29.97 in 9.0 mi SE 12.7 mph 20.7 mph N/A   Clear
10:51 AM 77.0 °F 70.0 °F 79% 29.98 in 9.0 mi SE 21.9 mph 29.9 mph N/A   Clear
11:51 AM 77.0 °F 70.0 °F 79% 29.99 in 10.0 mi SE 17.3 mph 25.3 mph N/A   Clear
12:51 PM 79.0 °F 70.0 °F 74% 29.97 in 10.0 mi SE 15.0 mph 23.0 mph N/A   Partly Cloudy
1:51 PM 78.1 °F 70.0 °F 76% 29.95 in 10.0 mi SE 15.0 mph 24.2 mph N/A   Clear
2:51 PM 78.1 °F 69.1 °F 74% 29.94 in 10.0 mi SE 17.3 mph 27.6 mph N/A   Partly Cloudy
3:51 PM 78.1 °F 70.0 °F 76% 29.91 in 10.0 mi SE 18.4 mph 29.9 mph N/A   Clear
4:51 PM 77.0 °F 70.0 °F 79% 29.88 in 9.0 mi SE 17.3 mph 28.8 mph N/A   Clear
5:51 PM 75.0 °F 69.1 °F 82% 29.88 in 9.0 mi SE 16.1 mph 24.2 mph N/A   Clear
6:51 PM 73.0 °F 69.1 °F 87% 29.88 in 8.0 mi SE 13.8 mph - N/A   Clear
7:51 PM 72.0 °F 69.1 °F 91% 29.88 in 8.0 mi SE 11.5 mph - N/A   Clear
8:51 PM 71.1 °F 69.1 °F 93% 29.88 in 7.0 mi SE 11.5 mph - N/A   Clear
9:51 PM 71.1 °F 69.1 °F 93% 29.88 in 7.0 mi SE 13.8 mph 20.7 mph N/A   Clear
10:51 PM 72.0 °F 70.0 °F 93% 29.87 in 7.0 mi SE 15.0 mph - N/A   Clear
11:51 PM 72.0 °F 70.0 °F 93% 29.85 in 7.0 mi SE 13.8 mph - N/A   Clear